Location: Hawks Ness
(60.2333°N, 1.1667°W)
Time: 23:34:41
(UTC+00:00)

Meteor 1-31 Rocket - Pass Details

Date: 22 October 2019
Orbit: 520 x 548 km, 97.6° (Epoch: 14 November)

Event Time Altitude Azimuth Distance (km) Brightness Sun altitude
Rises 06:14:19 0° 12° (NNE) 2,677 6.3 -6.4°
Reaches altitude 10° 06:16:38 10° 0° (N) 1,780 5.3 -6.1°
Maximum altitude 06:19:55 28° 302° (WNW) 1,023 3.7 -5.7°
Drops below altitude 10° 06:23:10 10° 243° (WSW) 1,763 5.0 -5.3°
Sets 06:25:27 0° 231° (SW) 2,647 5.9 -5.1°
